星链-35160(STARLINK-35160)

导读 | 豆包AI

STARLINK-35160是由美国于2025年10月8日发射的星链系列卫星,星链是SpaceX打造的全球卫星互联网星座项目,这类低轨卫星可在近地轨道提供高速互联网接入服务,覆盖偏远地区,补充地面通信网络不足,同时也持续拓展全球卫星互联网服务覆盖范围,服务更多用户。

基本信息
目录编号:
65911
目录名称:
STARLINK-35160
国际标识:
2025-225B
轨道中心:
EARTH
卫星名称:
星链-35160
卫星全名:
星链-35160(STARLINK-35160)
卫星状态:
在轨 (已飞行178 天)
发射日期:
2025-10-08 UTC
国别 :
美国 (US)
星等 :
--
轨道信息
数据来源 国际轨道数据 AOE轨道数据
星历时间 2026-04-03T21:42:33+0800
20小时前
查看轨道信息
2026-03-31T20:00:00+0800
3天前
查看轨道信息
半长轴 6853.354km 6853.39km
偏心率 0.0000892 0.0001508
轨道倾角 53.158° 53.158°
近地点辐角 71.623° 91.139°
升交点赤经 50.388° 64.654°
平近点角 288.487° 261.095°
近地点 474.605km 474.219km
远地点 475.829km 476.287km
周期 94.105分钟 94.106分钟
每日圈数 15.301995 15.301875
详细信息
固有亮度:
5
最大亮度:
2.5
卫星平台:
Starlink V1.0
覆盖范围:
全球
运营商:
太空探索技术公司
运营商所在国:
美国
制造商(研发单位):
太空探索技术公司
制造商所在国:
美国
使用方式:
暂无
卫星简介
Starlink 计划是 SpaceX 推出的全球卫星互联网项目,通过发射低轨道卫星,为全球尤其是偏远地区提供高速、低延迟的互联网服务。自 2019 年起,Starlink 已部署数千颗卫星,旨在缩小全球数字鸿沟,推动互联网普及。该项目还为军事、航空等行业提供通信支持,带来广泛经济效益。
2D轨道图
3D轨道图
轨道高度分析图
轨道倾角分析图
轨道综合分析图
查看轨道综合分析图